Regional Weather Roundup
Issued by NWS

Home | Current Version | Previous Version | Graphics & Text | Print | Product List | Glossary On
Versions: 1 2 3 4 5 6 7 8 9 10 11 12 13 14 15 16 17 18 19 20 21 22 23 24 25 26 27 28 29 30 31 32 33 34 35 36 37 38 39 40 41 42 43 44 45 46 47 48 49 50
000
ASUS45 KTFX 280819
RWRMT
MONTANA HOURLY WEATHER ROUNDUP
NATIONAL WEATHER SERVICE GREAT FALLS MT
119 AM MST WED JAN 28 2015

NOTE: "FAIR" INDICATES FEW OR NO CLOUDS BELOW 12000 FEET WITH NO
SIGNIFICANT WEATHER AND/OR OBSTRUCTIONS TO VISIBILITY.

* THESE STATIONS ARE NOT UNDER NWS QUALITY CONTROL. THEY DO NOT
   REPORT WEATHER SUCH AS PRECIPITATION OR FOG.

MTZ001>007-043-280900-
WEST OF THE DIVIDE
CITY           SKY/WX    TMP DP  RH WIND       PRES   REMARKS
KALISPELL      FOG       18  16  92 CALM      30.04R VSB 1/2
MISSOULA       FOG       28  27  96 CALM      30.10R
BUTTE          CLOUDY    30  28  92 CALM      30.06R
MULLAN PASS    CLEAR     30  27  89 W7        30.07R WCI  23
* ANACONDA     MOCLDY    36  28  73 N/A        N/A
* ESSEX        N/A       30  26  85 N/A        N/A
* EUREKA APT   CLEAR     34  27  76 SE5       30.04R WCI  29
* HAMILTON APT CLOUDY    36  32  85 S5        30.07S WCI  32
* LIBBY APT    PTCLDY    27  25  92 CALM      30.10R VSB M1/4
* LINCOLN      N/A       38  26  62 SW2G7      N/A
* LOOKOUT PASS N/A       37  29  73 SW3G9      N/A
* POLSON       N/A       39  27  62 SE1        N/A
* RONAN APT    PTCLDY    37  37 100 SE5        N/A   WCI  33
* SEELEY LAKE  N/A       24  22  92 S2G8       N/A
* THOMP F APT  CLEAR     33  32  96 N/A        N/A
* YAAK HILL    N/A       31  29  92 N3         N/A
$$

MTZ008-052>055-280900-
SOUTHWEST MONTANA
CITY           SKY/WX    TMP DP  RH WIND       PRES   REMARKS
BOZEMAN        CLOUDY    36  30  79 S9        30.02R WCI  29
DILLON         CLOUDY    39  34  82 SW12      30.04S WCI  32
* W YELLOWSTON CLOUDY    32  31  96 N/A        N/A
* THREE FORKS  CLOUDY    46  46 100 SW17G23    N/A
* BOULDER HILL N/A       43  22  43 NE1G9      N/A
* MONIDA PASS  N/A       31  31 100 SE9        N/A   WCI  23
* RAYNOLDS PAS N/A       32  14  47 SE12       N/A   WCI  23
* WHITEHALL    N/A       44  31  60 W3         N/A
* WISE RIVER   N/A       30  26  85 W3G9       N/A
$$

MTZ009>010-012-014-046-048-049-054-280900-
EAST SLOPES AND CENTRAL MONTANA
CITY           SKY/WX    TMP DP  RH WIND       PRES   REMARKS
CUT BANK       MOCLDY    41  25  53 W17       29.89R
GREAT FALLS    CLOUDY    46  30  54 SW10      29.91R
HELENA         CLOUDY    34  30  85 CALM      30.00S
MALMSTROM AFB  CLOUDY    50  28  43 W10       29.91R
* CONRAD       CLOUDY    45  28  51 SW12       N/A
* DEARBORN     N/A       53  26  35 S8         N/A
* EAST GLACIER N/A       40  22  49 W12        N/A   WCI  33
* MONARCH      N/A       44  20  38 SW14       N/A
* PENDROY      N/A       45  22  40 SE1G6      N/A
* ROGERS PASS  N/A       40  25  55 SE9G22     N/A   WCI  34
* SWEET GRASS  N/A       44  22  42 S21G30     N/A
* WHITE SULPH  N/A       38  25  60 NE1G9      N/A
$$

MTZ011-013-016-021-035-040-045-047-050-051-280900-
NORTH CENTRAL MONTANA
CITY           SKY/WX    TMP DP  RH WIND       PRES   REMARKS
HAVRE          CLOUDY    43  30  60 SW15      29.83R
LEWISTOWN      MOCLDY    43  30  60 SW14      29.89S
* N BAR RANCH  CLEAR     50  23  35 NW17      29.85F
* CHINOOK      CLOUDY    43  28  56 NW7       29.81R
* CHESTER      N/A       42  29  60 W12G18     N/A
* DENTON       N/A       46  26  46 W9         N/A
* GEYSER       N/A       46  21  37 W16        N/A
* JUDITH GAP   N/A       47  26  44 SE4        N/A
* LOMA         N/A       43  30  60 N/A        N/A
$$

MTZ017>020-022>027-061-062-280900-
NORTHEAST MONTANA
CITY           SKY/WX    TMP DP  RH WIND       PRES   REMARKS
GLASGOW        CLOUDY    37  32  82 W6        29.76S WCI  32
GLENDIVE       MOCLDY    34  28  79 SE6       29.77S WCI  29
JORDAN         PTCLDY    34  28  79 W10       29.80R WCI  26
SIDNEY         CLOUDY    34  30  85 CALM      29.77F
WOLF POINT     MOCLDY    34  30  85 W5        29.76S WCI  29
* BEAVER HILL  N/A       42  32  68 S6         N/A
* CIRCLE       N/A       38  33  82 N/A        N/A
* LINDSAY DVD  N/A       46  30  54 NW5        N/A
* NAVAJO       N/A       38  30  73 SW4        N/A
* PLENTYWOOD A MOCLDY    36  34  92 CALM      29.73F
* POPLAR APT   MOCLDY    34  30  85 N/A       29.75F
* SACO         N/A       30  29  96 N2         N/A
* SCOBEY APT   CLOUDY    34  28  79 N/A        N/A
$$

MTZ028>042-056>058-280900-
SOUTHCENTRAL AND SOUTHEAST MONTANA
CITY           SKY/WX    TMP DP  RH WIND       PRES   REMARKS
BAKER          MOCLDY    34  28  79 CALM      29.78F
BILLINGS       CLOUDY    48  30  50 SW14      29.88S
LIVINGSTON     CLOUDY    48  34  59 SW31G39   29.98R
MILES CITY     PTCLDY    36  30  79 W10       29.79F WCI  29
* BIG TIMBER A CLOUDY    50  32  50 SW16G28   29.93S
* LAUREL APT   CLOUDY    46  28  50 N/A        N/A
* ROUNDUP APT  MOCLDY    48  28  46 S6         N/A
* ALZADA       N/A       38  31  76 NW3        N/A
* HYSHAM       N/A       46  25  44 W7         N/A
* REED POINT   N/A       54  30  40 W9         N/A
$$

REGIONAL REPORTS...DAKOTAS
CITY           SKY/WX    TMP DP  RH WIND       PRES   REMARKS
WILLISTON      CLOUDY    32  30  92 CALM      29.74S
DICKINSON      CLEAR     32  27  82 W3        29.73F
BEACH          CLEAR     34  32  92 SW5       29.77F WCI  29
CROSBY         FOG       28  28 100 CALM      29.75F
TIOGA          CLEAR     28  28 100 NE3       29.76F
WATFORD CITY   CLEAR     32  32 100 CALM      29.72F
BISMARCK       MOCLDY    30  28  92 CALM      29.75F
GRAND FORKS    FOG       34  32  92 S12       29.85F WCI  25
FARGO          CLOUDY    36  32  85 S17G29    29.86F WCI  26
BUFFALO SD     CLEAR     43  30  60 W9        29.72F
RAPID CITY     PTCLDY    52  27  38 NW13      29.77F
$$

REGIONAL REPORTS...WYOMING/IDAHO/WASHINGTON
CITY           SKY/WX    TMP DP  RH WIND       PRES   REMARKS
GILLETTE       PTCLDY    43  30  60 SW12      29.87R
SHERIDAN       PTCLDY    37  28  70 S5        29.87S WCI  33
CODY           CLOUDY    48  30  50 W10G25    29.96S
YELLOWSTONE LA CLOUDY    30  28  92 CALM      30.13F
SALMON         CLOUDY   N/A N/A N/A CALM      30.16R
MULLAN PASS    CLEAR     30  27  89 W7        30.07S WCI  23
SAND POINT     FOG      N/A N/A N/A CALM      30.14R VSB M1/4
SPOKANE        FOG       34  34 100 SW7       30.16R VSB 1/2  WCI  28
$$

REGIONAL REPORTS...ALBERTA
CITY           SKY/WX    TMP DP  RH WIND       PRES   REMARKS
CALGARY        FAIR      32  28  85 NW14      29.92R WCI  22
LETHBRIDGE     CLEAR     39  25  57 NW17      29.89R WCI  30
MEDICINE HAT   CLEAR     32  30  92 NW12      29.85R WCI  23
EDMONTON       MOCLDY    30  30 100 SW7       29.92R WCI  23
WATERTON GATE  N/A       41  21  45 W10        N/A
CARDSTON       N/A       36  25  64 W9         N/A   WCI  29
MILK RIVER     N/A       37  27  67 NW15G21    N/A   WCI  28
$$

REGIONAL REPORTS...SASKATCHEWAN
CITY           SKY/WX    TMP DP  RH WIND       PRES   REMARKS
SWIFT CURRENT  FOG       28  28 100 NW3       29.72R VSB 1
REGINA         MOCLDY    28  27  96 E12       29.76F WCI  18
VAL MARIE      N/A       36  32  85 SW5        N/A   WCI  32
ASSINIBOIA     N/A       28  27  96 S3         N/A
CORONACH       N/A       37  32  82 NW6        N/A   WCI  32

$$




USA.gov is the U.S. government's official web portal to all federal, state and local government web resources and services.